| time (UTC) | temp C | wind direction | speed KPH | gust KPH | rain 1hr cm | rain 24hr cm | rain mn cm | humidity % | barometer mb |
| 20260509102113 | 10 | 152 | 1.6 | 4.8 | 0.00 | 0.00 | 0.00 | 61 | 996.6 |
| 20260509101609 | 10 | 137 | 4.8 | 12.9 | 0.00 | 0.00 | 0.00 | 59 | 996.5 |
| 20260509101106 | 10 | 128 | 1.6 | 8.0 | 0.00 | 0.00 | 0.00 | 59 | 996.5 |
| 20260509100603 | 11 | 188 | 4.8 | 9.7 | 0.00 | 0.00 | 0.00 | 58 | 996.7 |
| 20260509095557 | 11 | 173 | 4.8 | 14.5 | 0.00 | 0.00 | 0.00 | 61 | 997.1 |
| 20260509095055 | 10 | 156 | 4.8 | 4.8 | 0.00 | 0.00 | 0.00 | 69 | 997.1 |
| 20260509094551 | 11 | 157 | 4.8 | 8.0 | 0.00 | 0.00 | 0.00 | 70 | 997.2 |
| 20260509094048 | 11 | 176 | 1.6 | 4.8 | 0.00 | 0.00 | 0.00 | 71 | 997.3 |
| 20260509093547 | 10 | 194 | 4.8 | 12.9 | 0.00 | 0.00 | 0.00 | 72 | 997.2 |
| 20260509093044 | 10 | 204 | 6.4 | 8.0 | 0.00 | 0.00 | 0.00 | 78 | 997.3 |
| 20260509092541 | 10 | 228 | 6.4 | 11.3 | 0.00 | 0.00 | 0.00 | 76 | 997.1 |
| 20260509092040 | 10 | 237 | 9.7 | 17.7 | 0.00 | 0.00 | 0.00 | 72 | 996.9 |
| 20260509091537 | 10 | 176 | 1.6 | 9.7 | 0.00 | 0.00 | 0.00 | 68 | 997.6 |
| 20260509091033 | 8 | 208 | 4.8 | 11.3 | 0.00 | 0.00 | 0.00 | 70 | 997.5 |
| 20260509090531 | 8 | 273 | 4.8 | 8.0 | 0.00 | 0.00 | 0.00 | 77 | 997.7 |
| 20260509090029 | 6 | 108 | 0.0 | 0.0 | 0.00 | 0.00 | 0.00 | 87 | 997.3 |
| 20260509085526 | 6 | 106 | 0.0 | 1.6 | 0.00 | 0.00 | 0.00 | 93 | 997.5 |
| 20260509085021 | 6 | 106 | 0.0 | 0.0 | 0.00 | 0.00 | 0.00 | 93 | 997.4 |
| 20260509084519 | 6 | 108 | 0.0 | 1.6 | 0.00 | 0.00 | 0.00 | 97 | 997.4 |
| 20260509084016 | 6 | 116 | 0.0 | 0.0 | 0.00 | 0.00 | 0.00 | 97 | 997.4 |
| 20260509083513 | 6 | 119 | 0.0 | 0.0 | 0.00 | 0.00 | 0.00 | 99 | 997.8 |
| 20260509083010 | 5 | 119 | 0.0 | 0.0 | 0.00 | 0.00 | 0.00 | 99 | 997.6 |
| 20260509082507 | 5 | 120 | 0.0 | 0.0 | 0.00 | 0.00 | 0.00 | 99 | 997.6 |
| 20260509082004 | 5 | 125 | 0.0 | 0.0 | 0.00 | 0.00 | 0.00 | 99 | 997.8 |
| 20260509081501 | 5 | 126 | 0.0 | 0.0 | 0.00 | 0.00 | 0.00 | 99 | 997.9 |
| 20260509080958 | 5 | 134 | 0.0 | 0.0 | 0.00 | 0.00 | 0.00 | 97 | 997.9 |
| 20260509080456 | 5 | 117 | 0.0 | 0.0 | 0.00 | 0.00 | 0.00 | 99 | 998.0 |
| 20260509075954 | 5 | 118 | 0.0 | 0.0 | 0.00 | 0.00 | 0.00 | 99 | 998.1 |
| 20260509075451 | 5 | 119 | 0.0 | 0.0 | 0.00 | 0.00 | 0.00 | 99 | 998.2 |
| 20260509074949 | 5 | 119 | 0.0 | 0.0 | 0.00 | 0.00 | 0.00 | 99 | 998.3 |
| 20260509074446 | 4 | 141 | 0.0 | 0.0 | 0.00 | 0.00 | 0.00 | 99 | 998.2 |
| 20260509073942 | 4 | 162 | 1.6 | 1.6 | 0.00 | 0.00 | 0.00 | 99 | 998.4 |
| 20260509073438 | 4 | 117 | 0.0 | 0.0 | 0.00 | 0.00 | 0.00 | 99 | 998.1 |
| 20260509072935 | 4 | 119 | 0.0 | 0.0 | 0.00 | 0.00 | 0.00 | 99 | 998.2 |
| 20260509072432 | 3 | 129 | 0.0 | 0.0 | 0.00 | 0.00 | 0.00 | 99 | 998.3 |
| 20260509071929 | 4 | 142 | 0.0 | 0.0 | 0.00 | 0.00 | 0.00 | 99 | 998.7 |
| 20260509071425 | 3 | 129 | 0.0 | 0.0 | 0.00 | 0.00 | 0.00 | 99 | 998.6 |
| 20260509070923 | 3 | 130 | 0.0 | 0.0 | 0.00 | 0.00 | 0.00 | 99 | 998.5 |
| 20260509070420 | 4 | 133 | 0.0 | 0.0 | 0.00 | 0.00 | 0.00 | 99 | 998.8 |
| 20260509065915 | 4 | 135 | 0.0 | 0.0 | 0.00 | 0.00 | 0.00 | 99 | 999.0 |
| 20260509065412 | 4 | 136 | 0.0 | 0.0 | 0.00 | 0.00 | 0.00 | 99 | 999.0 |
| 20260509064908 | 3 | 147 | 1.6 | 3.2 | 0.00 | 0.00 | 0.00 | 99 | 999.2 |
| 20260509064406 | 3 | 147 | 0.0 | 0.0 | 0.00 | 0.00 | 0.00 | 99 | 999.3 |
| 20260509063903 | 4 | 227 | 1.6 | 1.6 | 0.00 | 0.00 | 0.00 | 99 | 999.3 |
| 20260509063359 | 4 | 118 | 0.0 | 0.0 | 0.00 | 0.00 | 0.00 | 99 | 999.0 |
| 20260509062856 | 5 | 120 | 0.0 | 0.0 | 0.00 | 0.00 | 0.00 | 99 | 999.1 |
| 20260509062353 | 5 | 121 | 0.0 | 0.0 | 0.00 | 0.00 | 0.00 | 99 | 999.2 |
| 20260509061850 | 5 | 128 | 0.0 | 0.0 | 0.00 | 0.00 | 0.00 | 99 | 999.6 |
| 20260509061349 | 5 | 130 | 0.0 | 1.6 | 0.00 | 0.00 | 0.00 | 99 | 999.5 |
| 20260509060845 | 5 | 133 | 0.0 | 0.0 | 0.00 | 0.00 | 0.00 | 99 | 999.5 |
| 20260509060342 | 5 | 116 | 1.6 | 1.6 | 0.00 | 0.00 | 0.00 | 99 | 999.5 |
| 20260509055837 | 5 | 111 | 0.0 | 0.0 | 0.00 | 0.00 | 0.00 | 99 | 999.6 |
| 20260509055333 | 5 | 110 | 0.0 | 0.0 | 0.00 | 0.00 | 0.00 | 98 | 999.6 |
| 20260509054830 | 5 | 110 | 0.0 | 0.0 | 0.00 | 0.00 | 0.00 | 98 | 999.6 |
| 20260509054327 | 5 | 112 | 0.0 | 1.6 | 0.00 | 0.00 | 0.00 | 96 | 999.7 |
| 20260509053825 | 5 | 111 | 0.0 | 1.6 | 0.00 | 0.00 | 0.00 | 95 | 1000.1 |
| 20260509053322 | 5 | 111 | 0.0 | 0.0 | 0.00 | 0.00 | 0.00 | 94 | 999.9 |
| 20260509052820 | 5 | 102 | 1.6 | 1.6 | 0.00 | 0.00 | 0.00 | 94 | 1000.0 |
| 20260509052318 | 6 | 100 | 1.6 | 1.6 | 0.00 | 0.00 | 0.00 | 94 | 1000.1 |
| 20260509051815 | 6 | 103 | 1.6 | 1.6 | 0.00 | 0.00 | 0.00 | 93 | 1000.1 |
| 20260509051313 | 6 | 116 | 0.0 | 1.6 | 0.00 | 0.00 | 0.00 | 91 | 1000.2 |
| 20260509050809 | 6 | 102 | 0.0 | 0.0 | 0.00 | 0.00 | 0.00 | 92 | 1000.1 |
| 20260509050306 | 6 | 102 | 0.0 | 0.0 | 0.00 | 0.00 | 0.00 | 92 | 1000.4 |
| 20260509045803 | 7 | 104 | 0.0 | 0.0 | 0.00 | 0.00 | 0.00 | 90 | 1000.5 |
| 20260509045300 | 7 | 106 | 0.0 | 0.0 | 0.00 | 0.00 | 0.00 | 87 | 1000.4 |
| 20260509044757 | 7 | 114 | 0.0 | 0.0 | 0.00 | 0.00 | 0.00 | 87 | 1000.2 |
| 20260509044255 | 7 | 112 | 0.0 | 1.6 | 0.00 | 0.00 | 0.00 | 87 | 1000.3 |
| 20260509043751 | 7 | 112 | 0.0 | 1.6 | 0.00 | 0.00 | 0.00 | 86 | 1000.4 |
| 20260509043247 | 7 | 112 | 1.6 | 3.2 | 0.00 | 0.00 | 0.00 | 86 | 1000.5 |
| 20260509042743 | 7 | 111 | 1.6 | 3.2 | 0.00 | 0.00 | 0.00 | 87 | 1000.9 |
| 20260509042240 | 6 | 117 | 3.2 | 3.2 | 0.00 | 0.00 | 0.00 | 90 | 1000.8 |
| 20260509041736 | 6 | 109 | 0.0 | 1.6 | 0.00 | 0.00 | 0.00 | 93 | 1000.9 |
| 20260509041233 | 6 | 126 | 0.0 | 0.0 | 0.00 | 0.00 | 0.00 | 94 | 1001.0 |
| 20260509040732 | 6 | 148 | 1.6 | 1.6 | 0.00 | 0.00 | 0.00 | 94 | 1001.1 |
| 20260509040229 | 7 | 113 | 0.0 | 0.0 | 0.00 | 0.00 | 0.00 | 92 | 1001.3 |
| 20260509035725 | 7 | 114 | 0.0 | 1.6 | 0.00 | 0.00 | 0.00 | 91 | 1001.1 |
| 20260509035222 | 7 | 94 | 0.0 | 1.6 | 0.00 | 0.00 | 0.00 | 91 | 1001.0 |
| 20260509034719 | 6 | 81 | 0.0 | 0.0 | 0.00 | 0.00 | 0.00 | 91 | 1001.2 |
| 20260509034217 | 6 | 81 | 0.0 | 0.0 | 0.00 | 0.00 | 0.00 | 90 | 1001.1 |
| 20260509033714 | 7 | 81 | 0.0 | 1.6 | 0.00 | 0.00 | 0.00 | 91 | 1001.1 |
| 20260509033211 | 7 | 84 | 0.0 | 0.0 | 0.00 | 0.00 | 0.00 | 91 | 1001.4 |
| 20260509032708 | 7 | 84 | 0.0 | 1.6 | 0.00 | 0.00 | 0.00 | 91 | 1001.3 |
| 20260509032205 | 7 | 76 | 0.0 | 1.6 | 0.00 | 0.00 | 0.00 | 91 | 1001.4 |
| 20260509031702 | 7 | 77 | 1.6 | 1.6 | 0.00 | 0.00 | 0.00 | 92 | 1001.5 |
| 20260509031159 | 7 | 93 | 0.0 | 0.0 | 0.00 | 0.00 | 0.00 | 91 | 1001.6 |
| 20260509030658 | 7 | 95 | 0.0 | 1.6 | 0.00 | 0.00 | 0.00 | 92 | 1001.6 |
| 20260509030155 | 7 | 112 | 0.0 | 0.0 | 0.00 | 0.00 | 0.00 | 91 | 1001.7 |
| 20260509025651 | 7 | 114 | 0.0 | 0.0 | 0.00 | 0.00 | 0.00 | 90 | 1001.8 |
| 20260509025147 | 7 | 125 | 0.0 | 0.0 | 0.00 | 0.00 | 0.00 | 91 | 1001.7 |
| 20260509024642 | 7 | 152 | 1.6 | 1.6 | 0.00 | 0.00 | 0.00 | 90 | 1002.0 |
| 20260509024138 | 7 | 93 | 0.0 | 0.0 | 0.00 | 0.00 | 0.00 | 89 | 1002.0 |
| 20260509023636 | 7 | 82 | 3.2 | 3.2 | 0.00 | 0.00 | 0.00 | 89 | 1002.0 |
| 20260509023133 | 7 | 82 | 3.2 | 3.2 | 0.00 | 0.00 | 0.00 | 89 | 1001.8 |
| 20260509022629 | 7 | 139 | 1.6 | 1.6 | 0.00 | 0.00 | 0.00 | 89 | 1002.0 |
| 20260509022127 | 7 | 142 | 1.6 | 1.6 | 0.00 | 0.00 | 0.00 | 88 | 1002.0 |
| 20260509021624 | 7 | 81 | 1.6 | 1.6 | 0.00 | 0.00 | 0.00 | 88 | 1002.0 |
| 20260509021121 | 7 | 93 | 0.0 | 1.6 | 0.00 | 0.00 | 0.00 | 88 | 1002.0 |
| 20260509020619 | 7 | 88 | 1.6 | 4.8 | 0.00 | 0.00 | 0.00 | 87 | 1001.8 |
| 20260509020116 | 7 | 94 | 1.6 | 1.6 | 0.00 | 0.00 | 0.00 | 87 | 1001.9 |
| 20260509015615 | 7 | 147 | 3.2 | 3.2 | 0.00 | 0.00 | 0.00 | 87 | 1001.9 |
| 20260509015112 | 7 | 147 | 3.2 | 3.2 | 0.00 | 0.00 | 0.00 | 87 | 1002.0 |
| 20260509014608 | 7 | 79 | 1.6 | 3.2 | 0.00 | 0.00 | 0.00 | 87 | 1002.0 |
| 20260509014105 | 7 | 210 | 3.2 | 3.2 | 0.00 | 0.00 | 0.00 | 86 | 1002.2 |
| 20260509013602 | 7 | 121 | 1.6 | 3.2 | 0.00 | 0.00 | 0.00 | 87 | 1001.7 |
| 20260509013057 | 7 | 147 | 0.0 | 0.0 | 0.00 | 0.00 | 0.00 | 87 | 1001.8 |
| 20260509012554 | 7 | 125 | 4.8 | 4.8 | 0.00 | 0.00 | 0.00 | 85 | 1001.7 |
| 20260509012051 | 7 | 119 | 3.2 | 3.2 | 0.00 | 0.00 | 0.00 | 83 | 1001.8 |
| 20260509011549 | 7 | 144 | 0.0 | 1.6 | 0.00 | 0.00 | 0.00 | 83 | 1001.9 |
| 20260509011046 | 8 | 132 | 3.2 | 3.2 | 0.00 | 0.00 | 0.00 | 82 | 1001.8 |
| 20260509010544 | 8 | 91 | 1.6 | 3.2 | 0.00 | 0.00 | 0.00 | 81 | 1001.6 |
| 20260509010040 | 8 | 106 | 4.8 | 4.8 | 0.00 | 0.00 | 0.00 | 78 | 1001.5 |
| 20260509005538 | 8 | 111 | 1.6 | 1.6 | 0.00 | 0.00 | 0.00 | 76 | 1002.0 |
| 20260509005033 | 8 | 127 | 4.8 | 4.8 | 0.00 | 0.00 | 0.00 | 74 | 1002.0 |
| 20260509004530 | 9 | 127 | 3.2 | 3.2 | 0.00 | 0.00 | 0.00 | 73 | 1001.8 |
| 20260509004027 | 9 | 121 | 4.8 | 4.8 | 0.00 | 0.00 | 0.00 | 72 | 1001.5 |
| 20260509003525 | 10 | 111 | 4.8 | 8.0 | 0.00 | 0.00 | 0.00 | 70 | 1001.5 |
| 20260509003022 | 10 | 126 | 3.2 | 3.2 | 0.00 | 0.00 | 0.00 | 69 | 1001.9 |
| 20260509002519 | 10 | 101 | 1.6 | 4.8 | 0.00 | 0.00 | 0.00 | 69 | 1001.7 |
| 20260509002016 | 10 | 128 | 6.4 | 8.0 | 0.00 | 0.00 | 0.00 | 60 | 1001.9 |
| 20260509001514 | 10 | 85 | 1.6 | 3.2 | 0.00 | 0.00 | 0.00 | 56 | 1001.7 |
| 20260509001010 | 10 | 84 | 1.6 | 1.6 | 0.00 | 0.00 | 0.00 | 57 | 1001.7 |
| 20260509000508 | 11 | 81 | 3.2 | 3.2 | 0.00 | 0.00 | 0.00 | 54 | 1001.5 |
| 20260509000004 | 11 | 80 | 0.0 | 3.2 | 0.00 | 0.00 | 0.00 | 54 | 1001.9 |
| 20260508235502 | 11 | 74 | 1.6 | 3.2 | 0.00 | 0.00 | 0.00 | 55 | 1001.6 |
| 20260508234958 | 11 | 80 | 1.6 | 4.8 | 0.00 | 0.00 | 0.00 | 53 | 1001.8 |
| 20260508234455 | 11 | 56 | 3.2 | 3.2 | 0.00 | 0.00 | 0.00 | 54 | 1001.7 |
| 20260508233952 | 11 | 78 | 1.6 | 8.0 | 0.00 | 0.00 | 0.00 | 54 | 1001.8 |
| 20260508233452 | 11 | 107 | 3.2 | 4.8 | 0.00 | 0.00 | 0.00 | 52 | 1001.7 |
| 20260508232948 | 12 | 110 | 4.8 | 9.7 | 0.00 | 0.00 | 0.00 | 51 | 1001.6 |
| 20260508232445 | 12 | 57 | 4.8 | 4.8 | 0.00 | 0.00 | 0.00 | 50 | 1001.6 |
| 20260508231942 | 12 | 90 | 6.4 | 9.7 | 0.00 | 0.00 | 0.00 | 51 | 1001.8 |
| 20260508231440 | 12 | 68 | 3.2 | 11.3 | 0.00 | 0.00 | 0.00 | 50 | 1001.6 |
| 20260508230936 | 12 | 72 | 8.0 | 12.9 | 0.00 | 0.00 | 0.00 | 50 | 1001.6 |
| 20260508230433 | 12 | 82 | 6.4 | 12.9 | 0.00 | 0.00 | 0.00 | 49 | 1001.6 |
| 20260508225930 | 12 | 29 | 8.0 | 16.1 | 0.00 | 0.00 | 0.00 | 50 | 1001.6 |
| 20260508225427 | 12 | 49 | 8.0 | 14.5 | 0.00 | 0.00 | 0.00 | 49 | 1001.4 |
| 20260508224924 | 12 | 65 | 8.0 | 17.7 | 0.00 | 0.00 | 0.00 | 50 | 1001.5 |
| 20260508224422 | 12 | 67 | 8.0 | 12.9 | 0.00 | 0.00 | 0.00 | 50 | 1001.5 |
| 20260508223919 | 12 | 80 | 6.4 | 11.3 | 0.00 | 0.00 | 0.00 | 51 | 1001.5 |
| 20260508223417 | 12 | 93 | 6.4 | 14.5 | 0.00 | 0.00 | 0.00 | 48 | 1001.5 |
| 20260508222914 | 12 | 66 | 8.0 | 14.5 | 0.00 | 0.00 | 0.00 | 49 | 1001.6 |
| 20260508222411 | 12 | 4 | 11.3 | 20.9 | 0.00 | 0.00 | 0.00 | 49 | 1001.5 |
| 20260508221908 | 13 | 76 | 3.2 | 14.5 | 0.00 | 0.00 | 0.00 | 50 | 1001.6 |
| 20260508221403 | 12 | 54 | 6.4 | 12.9 | 0.00 | 0.00 | 0.00 | 50 | 1001.5 |
| 20260508220900 | 12 | 22 | 4.8 | 12.9 | 0.00 | 0.00 | 0.00 | 50 | 1001.3 |
| 20260508220356 | 13 | 33 | 8.0 | 17.7 | 0.00 | 0.00 | 0.00 | 48 | 1001.6 |
| 20260508215853 | 14 | 37 | 9.7 | 16.1 | 0.00 | 0.00 | 0.00 | 47 | 1001.5 |
| 20260508215349 | 13 | 57 | 17.7 | 25.7 | 0.00 | 0.00 | 0.00 | 48 | 1001.6 |
| 20260508214846 | 13 | 32 | 6.4 | 11.3 | 0.00 | 0.00 | 0.00 | 49 | 1001.4 |
| 20260508214344 | 13 | 58 | 4.8 | 9.7 | 0.00 | 0.00 | 0.00 | 50 | 1001.5 |
| 20260508213840 | 12 | 44 | 9.7 | 16.1 | 0.00 | 0.00 | 0.00 | 50 | 1001.2 |
| 20260508213337 | 13 | 96 | 3.2 | 9.7 | 0.00 | 0.00 | 0.00 | 49 | 1001.3 |
| 20260508212833 | 13 | 89 | 9.7 | 12.9 | 0.00 | 0.00 | 0.00 | 48 | 1001.1 |
| 20260508212330 | 13 | 124 | 6.4 | 9.7 | 0.00 | 0.00 | 0.00 | 50 | 1001.1 |
| 20260508211825 | 13 | 90 | 8.0 | 14.5 | 0.00 | 0.00 | 0.00 | 49 | 1001.1 |
| 20260508211321 | 13 | 92 | 4.8 | 11.3 | 0.00 | 0.00 | 0.00 | 50 | 1001.1 |
| 20260508210819 | 13 | 100 | 4.8 | 11.3 | 0.00 | 0.00 | 0.00 | 51 | 1001.0 |
| 20260508210316 | 13 | 72 | 8.0 | 11.3 | 0.00 | 0.00 | 0.00 | 49 | 1001.0 |
| 20260508205813 | 14 | 61 | 8.0 | 12.9 | 0.00 | 0.00 | 0.00 | 48 | 1000.9 |
| 20260508205308 | 13 | 108 | 1.6 | 8.0 | 0.00 | 0.00 | 0.00 | 49 | 1001.1 |
| 20260508204805 | 13 | 90 | 1.6 | 8.0 | 0.00 | 0.00 | 0.00 | 50 | 1001.3 |
| 20260508204302 | 14 | 110 | 4.8 | 11.3 | 0.00 | 0.00 | 0.00 | 48 | 1000.9 |
| 20260508203758 | 15 | 82 | 8.0 | 16.1 | 0.00 | 0.00 | 0.00 | 46 | 1000.9 |
| 20260508203254 | 15 | 37 | 6.4 | 16.1 | 0.00 | 0.00 | 0.00 | 46 | 1001.2 |
| 20260508202750 | 16 | 289 | 12.9 | 24.1 | 0.00 | 0.00 | 0.00 | 36 | 1001.0 |
| 20260508202248 | 15 | 328 | 6.4 | 16.1 | 0.00 | 0.00 | 0.00 | 36 | 1001.1 |
| 20260508201745 | 15 | 310 | 16.1 | 24.1 | 0.00 | 0.00 | 0.00 | 34 | 1001.1 |
| 20260508201241 | 16 | 333 | 11.3 | 24.1 | 0.00 | 0.00 | 0.00 | 40 | 1001.3 |
| 20260508200738 | 16 | 283 | 16.1 | 20.9 | 0.00 | 0.00 | 0.00 | 35 | 1001.2 |
| 20260508200234 | 16 | 320 | 9.7 | 16.1 | 0.00 | 0.00 | 0.00 | 39 | 1001.2 |
| 20260508195730 | 15 | 255 | 17.7 | 25.7 | 0.00 | 0.00 | 0.00 | 35 | 1001.5 |
| 20260508195227 | 16 | 305 | 19.3 | 29.0 | 0.00 | 0.00 | 0.00 | 35 | 1001.6 |
| 20260508194724 | 15 | 332 | 9.7 | 25.7 | 0.00 | 0.00 | 0.00 | 36 | 1001.5 |
| 20260508194221 | 15 | 298 | 12.9 | 20.9 | 0.00 | 0.00 | 0.00 | 36 | 1001.7 |
| 20260508193718 | 15 | 297 | 8.0 | 25.7 | 0.00 | 0.00 | 0.00 | 38 | 1001.7 |
| 20260508193214 | 15 | 298 | 16.1 | 22.5 | 0.00 | 0.00 | 0.00 | 35 | 1001.7 |
| 20260508192711 | 15 | 289 | 11.3 | 25.7 | 0.00 | 0.00 | 0.00 | 38 | 1001.9 |
| 20260508192208 | 16 | 265 | 12.9 | 25.7 | 0.00 | 0.00 | 0.00 | 33 | 1001.8 |
| 20260508191705 | 16 | 326 | 4.8 | 16.1 | 0.00 | 0.00 | 0.00 | 37 | 1002.2 |
| 20260508191202 | 15 | 243 | 14.5 | 27.4 | 0.00 | 0.00 | 0.00 | 36 | 1002.2 |
| 20260508190659 | 15 | 221 | 22.5 | 29.0 | 0.00 | 0.00 | 0.00 | 36 | 1002.1 |
| 20260508190155 | 15 | 333 | 9.7 | 17.7 | 0.00 | 0.00 | 0.00 | 36 | 1002.3 |
| 20260508185652 | 15 | 261 | 12.9 | 22.5 | 0.00 | 0.00 | 0.00 | 37 | 1002.1 |
| 20260508185149 | 14 | 321 | 27.4 | 35.4 | 0.00 | 0.00 | 0.00 | 37 | 1002.2 |
| 20260508184647 | 14 | 279 | 11.3 | 22.5 | 0.00 | 0.00 | 0.00 | 39 | 1002.3 |
| 20260508184144 | 14 | 248 | 11.3 | 22.5 | 0.00 | 0.00 | 0.00 | 40 | 1002.4 |
| 20260508183641 | 15 | 277 | 14.5 | 24.1 | 0.00 | 0.00 | 0.00 | 37 | 1002.3 |
| 20260508183136 | 14 | 293 | 9.7 | 20.9 | 0.00 | 0.00 | 0.00 | 40 | 1002.4 |
| 20260508182633 | 14 | 316 | 27.4 | 37.0 | 0.00 | 0.00 | 0.00 | 39 | 1002.7 |
| 20260508182129 | 15 | 324 | 17.7 | 29.0 | 0.00 | 0.00 | 0.00 | 38 | 1002.6 |
| 20260508181625 | 14 | 284 | 9.7 | 24.1 | 0.00 | 0.00 | 0.00 | 39 | 1002.6 |
| 20260508181123 | 14 | 282 | 9.7 | 25.7 | 0.00 | 0.00 | 0.00 | 41 | 1002.8 |
| 20260508180619 | 14 | 318 | 12.9 | 17.7 | 0.00 | 0.00 | 0.00 | 40 | 1003.0 |
| 20260508180116 | 14 | 269 | 8.0 | 17.7 | 0.00 | 0.00 | 0.00 | 42 | 1002.8 |
| 20260508175612 | 13 | 255 | 12.9 | 16.1 | 0.00 | 0.00 | 0.00 | 41 | 1002.9 |
| 20260508175109 | 13 | 268 | 8.0 | 16.1 | 0.00 | 0.00 | 0.00 | 40 | 1003.1 |
| 20260508174607 | 13 | 220 | 16.1 | 32.2 | 0.00 | 0.00 | 0.00 | 40 | 1003.2 |
| 20260508174104 | 13 | 310 | 17.7 | 20.9 | 0.00 | 0.00 | 0.00 | 41 | 1003.1 |
| 20260508173601 | 13 | 247 | 17.7 | 25.7 | 0.00 | 0.00 | 0.00 | 42 | 1003.4 |
| 20260508173056 | 13 | 253 | 9.7 | 16.1 | 0.00 | 0.00 | 0.00 | 43 | 1003.5 |
| 20260508172554 | 13 | 255 | 14.5 | 24.1 | 0.00 | 0.00 | 0.00 | 42 | 1003.4 |
| 20260508172050 | 13 | 273 | 19.3 | 24.1 | 0.00 | 0.00 | 0.00 | 42 | 1003.7 |
| 20260508171547 | 13 | 316 | 12.9 | 22.5 | 0.00 | 0.00 | 0.00 | 42 | 1003.6 |
| 20260508171043 | 13 | 284 | 9.7 | 24.1 | 0.00 | 0.00 | 0.00 | 44 | 1003.7 |
| 20260508170541 | 14 | 272 | 8.0 | 11.3 | 0.00 | 0.00 | 0.00 | 43 | 1003.7 |
| 20260508170038 | 13 | 257 | 6.4 | 20.9 | 0.00 | 0.00 | 0.00 | 44 | 1003.7 |
| 20260508165535 | 12 | 252 | 9.7 | 14.5 | 0.00 | 0.00 | 0.00 | 47 | 1004.1 |
| 20260508165032 | 13 | 329 | 14.5 | 16.1 | 0.00 | 0.00 | 0.00 | 46 | 1004.4 |
| 20260508164528 | 12 | 341 | 14.5 | 20.9 | 0.00 | 0.00 | 0.00 | 47 | 1004.1 |
| 20260508164025 | 12 | 333 | 8.0 | 17.7 | 0.00 | 0.00 | 0.00 | 50 | 1004.4 |
| 20260508163523 | 12 | 302 | 4.8 | 14.5 | 0.00 | 0.00 | 0.00 | 47 | 1004.1 |
| 20260508163019 | 12 | 247 | 9.7 | 20.9 | 0.00 | 0.00 | 0.00 | 50 | 1004.1 |
| 20260508162516 | 12 | 312 | 4.8 | 11.3 | 0.00 | 0.00 | 0.00 | 47 | 1004.2 |
| 20260508162014 | 12 | 299 | 8.0 | 12.9 | 0.00 | 0.00 | 0.00 | 51 | 1004.4 |
| 20260508161510 | 12 | 258 | 8.0 | 12.9 | 0.00 | 0.00 | 0.00 | 50 | 1004.5 |
| 20260508161007 | 12 | 253 | 6.4 | 9.7 | 0.00 | 0.00 | 0.00 | 49 | 1004.6 |
| 20260508160506 | 12 | 307 | 8.0 | 11.3 | 0.00 | 0.00 | 0.00 | 47 | 1004.5 |
| 20260508160003 | 12 | 190 | 4.8 | 12.9 | 0.00 | 0.00 | 0.00 | 50 | 1004.3 |
| 20260508155459 | 12 | 249 | 8.0 | 9.7 | 0.00 | 0.00 | 0.00 | 50 | 1004.4 |
| 20260508154956 | 12 | 286 | 9.7 | 11.3 | 0.00 | 0.00 | 0.00 | 49 | 1004.6 |
| 20260508154454 | 11 | 195 | 4.8 | 8.0 | 0.00 | 0.00 | 0.00 | 50 | 1004.3 |
| 20260508153950 | 12 | 189 | 8.0 | 11.3 | 0.00 | 0.00 | 0.00 | 49 | 1004.6 |
| 20260508153447 | 11 | 261 | 8.0 | 14.5 | 0.00 | 0.00 | 0.00 | 52 | 1004.8 |
| 20260508152943 | 11 | 255 | 8.0 | 9.7 | 0.00 | 0.00 | 0.00 | 52 | 1004.8 |
| 20260508152440 | 11 | 210 | 3.2 | 14.5 | 0.00 | 0.00 | 0.00 | 52 | 1004.9 |
| 20260508151936 | 12 | 222 | 9.7 | 16.1 | 0.00 | 0.00 | 0.00 | 49 | 1004.7 |
| 20260508151433 | 12 | 186 | 6.4 | 20.9 | 0.00 | 0.00 | 0.00 | 47 | 1004.8 |
| 20260508150930 | 12 | 236 | 4.8 | 9.7 | 0.00 | 0.00 | 0.00 | 52 | 1005.1 |
| 20260508150426 | 11 | 200 | 4.8 | 11.3 | 0.00 | 0.00 | 0.00 | 57 | 1005.0 |
| 20260508145922 | 11 | 215 | 6.4 | 11.3 | 0.00 | 0.00 | 0.00 | 57 | 1005.0 |
| 20260508145419 | 11 | 192 | 8.0 | 12.9 | 0.00 | 0.00 | 0.00 | 58 | 1005.2 |
| 20260508144915 | 10 | 294 | 8.0 | 12.9 | 0.00 | 0.00 | 0.00 | 60 | 1005.4 |
| 20260508144414 | 10 | 266 | 11.3 | 14.5 | 0.00 | 0.00 | 0.00 | 61 | 1005.5 |
| 20260508143911 | 10 | 236 | 4.8 | 14.5 | 0.00 | 0.00 | 0.00 | 62 | 1005.7 |
| 20260508143408 | 10 | 199 | 4.8 | 9.7 | 0.00 | 0.00 | 0.00 | 65 | 1005.4 |
| 20260508142904 | 10 | 173 | 4.8 | 9.7 | 0.00 | 0.00 | 0.00 | 66 | 1005.8 |
| 20260508142402 | 9 | 178 | 4.8 | 11.3 | 0.00 | 0.00 | 0.00 | 66 | 1005.7 |
| 20260508141858 | 8 | 258 | 6.4 | 11.3 | 0.00 | 0.00 | 0.00 | 66 | 1005.7 |
| 20260508141354 | 8 | 242 | 6.4 | 11.3 | 0.00 | 0.00 | 0.00 | 67 | 1005.7 |
| 20260508140852 | 8 | 249 | 6.4 | 14.5 | 0.00 | 0.00 | 0.00 | 68 | 1005.9 |
| 20260508140349 | 8 | 224 | 9.7 | 16.1 | 0.00 | 0.00 | 0.00 | 66 | 1005.7 |
| 20260508135845 | 8 | 253 | 4.8 | 12.9 | 0.00 | 0.00 | 0.00 | 68 | 1006.1 |
| 20260508135342 | 8 | 279 | 11.3 | 11.3 | 0.00 | 0.00 | 0.00 | 69 | 1006.2 |
| 20260508134838 | 8 | 312 | 6.4 | 12.9 | 0.00 | 0.00 | 0.00 | 69 | 1006.0 |
| 20260508134334 | 8 | 245 | 9.7 | 11.3 | 0.00 | 0.00 | 0.00 | 70 | 1006.0 |
| 20260508133831 | 7 | 267 | 4.8 | 9.7 | 0.00 | 0.00 | 0.00 | 72 | 1006.1 |
| 20260508133329 | 7 | 277 | 3.2 | 8.0 | 0.00 | 0.00 | 0.00 | 72 | 1006.1 |
| 20260508132826 | 7 | 334 | 3.2 | 12.9 | 0.00 | 0.00 | 0.00 | 73 | 1006.1 |
| 20260508132324 | 6 | 259 | 3.2 | 8.0 | 0.00 | 0.00 | 0.00 | 76 | 1006.0 |
| 20260508131820 | 6 | 282 | 6.4 | 11.3 | 0.00 | 0.00 | 0.00 | 75 | 1006.2 |
| 20260508131316 | 6 | 265 | 6.4 | 11.3 | 0.00 | 0.00 | 0.00 | 75 | 1006.3 |
| 20260508130812 | 6 | 244 | 6.4 | 9.7 | 0.00 | 0.00 | 0.00 | 75 | 1006.2 |
| 20260508130310 | 6 | 304 | 6.4 | 8.0 | 0.00 | 0.00 | 0.00 | 74 | 1006.2 |
| 20260508125806 | 5 | 266 | 6.4 | 9.7 | 0.00 | 0.00 | 0.00 | 76 | 1006.2 |
| 20260508125305 | 5 | 299 | 4.8 | 8.0 | 0.00 | 0.00 | 0.00 | 76 | 1006.4 |
| 20260508124800 | 4 | 302 | 6.4 | 9.7 | 0.00 | 0.00 | 0.00 | 79 | 1006.2 |
| 20260508124257 | 4 | 257 | 3.2 | 4.8 | 0.00 | 0.00 | 0.00 | 80 | 1006.2 |
| 20260508123755 | 3 | 253 | 4.8 | 9.7 | 0.00 | 0.00 | 0.00 | 78 | 1006.5 |
| 20260508123253 | 3 | 294 | 3.2 | 3.2 | 0.00 | 0.00 | 0.00 | 81 | 1006.2 |
| 20260508122749 | 3 | 315 | 3.2 | 3.2 | 0.00 | 0.00 | 0.00 | 82 | 1006.3 |
| 20260508122246 | 3 | 293 | 1.6 | 4.8 | 0.00 | 0.00 | 0.00 | 83 | 1006.2 |
| 20260508121743 | 3 | 267 | 1.6 | 4.8 | 0.00 | 0.00 | 0.00 | 81 | 1006.1 |
| 20260508121242 | 3 | 283 | 3.2 | 4.8 | 0.00 | 0.00 | 0.00 | 82 | 1006.3 |
| 20260508120738 | 3 | 289 | 3.2 | 4.8 | 0.00 | 0.00 | 0.00 | 81 | 1006.1 |
| 20260508120237 | 2 | 292 | 3.2 | 4.8 | 0.00 | 0.00 | 0.00 | 81 | 1006.2 |
| 20260508115734 | 2 | 299 | 3.2 | 3.2 | 0.00 | 0.00 | 0.00 | 82 | 1006.1 |
| 20260508115231 | 2 | 287 | 4.8 | 4.8 | 0.00 | 0.00 | 0.00 | 81 | 1005.9 |
| 20260508114727 | 2 | 273 | 1.6 | 3.2 | 0.00 | 0.00 | 0.00 | 82 | 1006.0 |
| 20260508114224 | 2 | 314 | 3.2 | 4.8 | 0.00 | 0.00 | 0.00 | 81 | 1006.0 |
| 20260508113721 | 2 | 290 | 3.2 | 4.8 | 0.00 | 0.00 | 0.00 | 80 | 1006.0 |
| 20260508113220 | 2 | 297 | 3.2 | 3.2 | 0.00 | 0.00 | 0.00 | 80 | 1006.0 |
| 20260508112715 | 2 | 321 | 4.8 | 4.8 | 0.00 | 0.00 | 0.00 | 81 | 1005.9 |
| 20260508112212 | 2 | 330 | 3.2 | 4.8 | 0.00 | 0.00 | 0.00 | 84 | 1005.9 |
| 20260508111709 | 1 | 310 | 3.2 | 4.8 | 0.00 | 0.00 | 0.00 | 86 | 1005.6 |
| 20260508111207 | 1 | 256 | 1.6 | 3.2 | 0.00 | 0.00 | 0.00 | 90 | 1005.6 |
| 20260508110704 | 0 | 209 | 1.6 | 3.2 | 0.00 | 0.00 | 0.00 | 90 | 1005.8 |
| 20260508110200 | 0 | 144 | 0.0 | 1.6 | 0.00 | 0.00 | 0.00 | 94 | 1005.8 |
| 20260508105655 | 0 | 145 | 0.0 | 1.6 | 0.00 | 0.00 | 0.00 | 98 | 1005.8 |
| 20260508105152 | 0 | 145 | 0.0 | 0.0 | 0.00 | 0.00 | 0.00 | 97 | 1005.7 |
| 20260508104649 | 0 | 149 | 0.0 | 0.0 | 0.00 | 0.00 | 0.00 | 96 | 1005.6 |
| 20260508104146 | 0 | 160 | 0.0 | 0.0 | 0.00 | 0.00 | 0.00 | 95 | 1005.7 |
| 20260508103643 | 0 | 181 | 0.0 | 1.6 | 0.00 | 0.00 | 0.00 | 95 | 1005.7 |
| 20260508103140 | 0 | 195 | 0.0 | 1.6 | 0.00 | 0.00 | 0.00 | 95 | 1005.8 |
| 20260508102637 | 0 | 206 | 0.0 | 1.6 | 0.00 | 0.00 | 0.00 | 96 | 1005.7 |